SHT5U EGAC-EGLL

Flight info

Callsign SHT5U
Flight time 0h 47m
Altitude 35000
Route DCT DUFFY L10 RINGA Q39 ETIGA DCT INKOB Q39 NOMSU UQ4 WAL UY53 NUGRA NUGRA2H
Aircraft A319/M-SDE2E3FGIJ1RWXY/SB1

Departure

Time 2026-05-05 16:09
Airport George Best Belfast City Airport (EGAC)

Arrival

Time 2026-05-05 16:57
Airport London Heathrow Airport (EGLL)
Time Latitude Longitude Altitude Speed Heading
2026-05-05 15:15 54.61459 -5.87186 24 ft 0 kts 156°
2026-05-05 15:59 54.61465 -5.87190 25 ft 4 kts 156°
2026-05-05 15:59 54.61490 -5.87208 24 ft 4 kts 160°
2026-05-05 15:59 54.61516 -5.87222 25 ft 4 kts 175°
2026-05-05 15:59 54.61537 -5.87217 25 ft 1 kts 217°
2026-05-05 16:04 54.61527 -5.87230 24 ft 5 kts 217°
2026-05-05 16:05 54.61480 -5.87286 23 ft 10 kts 214°
2026-05-05 16:05 54.61416 -5.87368 23 ft 13 kts 227°
2026-05-05 16:05 54.61353 -5.87482 23 ft 14 kts 214°
2026-05-05 16:05 54.61268 -5.87583 23 ft 16 kts 214°
2026-05-05 16:06 54.61175 -5.87693 23 ft 16 kts 214°
2026-05-05 16:06 54.61100 -5.87785 24 ft 9 kts 219°
2026-05-05 16:06 54.61086 -5.87824 23 ft 0 kts 251°
2026-05-05 16:07 54.61085 -5.87826 23 ft 1 kts 251°
2026-05-05 16:07 54.61081 -5.87866 23 ft 7 kts 267°
2026-05-05 16:08 54.61113 -5.87976 23 ft 12 kts 304°
2026-05-05 16:08 54.61191 -5.87991 24 ft 15 kts 32°
2026-05-05 16:08 54.61377 -5.87770 21 ft 64 kts 34°
2026-05-05 16:08 54.61942 -5.87100 26 ft 132 kts 34°
2026-05-05 16:09 54.62732 -5.86106 591 ft 140 kts 37°
2026-05-05 16:09 54.63506 -5.85064 1317 ft 143 kts 34°
2026-05-05 16:09 54.64322 -5.83979 1781 ft 155 kts 34°
2026-05-05 16:09 54.65206 -5.82764 2245 ft 169 kts 36°
2026-05-05 16:10 54.66088 -5.81339 2776 ft 182 kts 50°
2026-05-05 16:10 54.66533 -5.79154 3131 ft 213 kts 86°
2026-05-05 16:10 54.66032 -5.76579 3534 ft 247 kts 126°
2026-05-05 16:10 54.64533 -5.74854 4061 ft 276 kts 165°
2026-05-05 16:11 54.62623 -5.74972 5028 ft 281 kts 200°
2026-05-05 16:11 54.57644 -5.80208 8123 ft 283 kts 215°
2026-05-05 16:12 54.55988 -5.82079 9076 ft 286 kts 216°
2026-05-05 16:12 54.52200 -5.84145 10614 ft 310 kts 171°
2026-05-05 16:13 54.47476 -5.76445 12488 ft 344 kts 124°
2026-05-05 16:13 54.46115 -5.72936 12940 ft 358 kts 124°
2026-05-05 16:13 54.44725 -5.69343 13639 ft 364 kts 124°
2026-05-05 16:14 54.42352 -5.63302 14745 ft 370 kts 124°
2026-05-05 16:14 54.39405 -5.55965 16081 ft 377 kts 125°
2026-05-05 16:15 54.36377 -5.48527 17390 ft 384 kts 125°
2026-05-05 16:15 54.33291 -5.40950 18648 ft 391 kts 125°
2026-05-05 16:16 54.30155 -5.33240 19814 ft 397 kts 125°
2026-05-05 16:16 54.26936 -5.25458 20961 ft 404 kts 127°
2026-05-05 16:17 54.23399 -5.17913 22100 ft 409 kts 131°
2026-05-05 16:17 54.21551 -5.14186 22632 ft 413 kts 131°
2026-05-05 16:18 54.17808 -5.06649 23673 ft 419 kts 131°
2026-05-05 16:18 54.15933 -5.02819 24110 ft 421 kts 131°
2026-05-05 16:18 54.12184 -4.95069 24967 ft 426 kts 130°
2026-05-05 16:19 54.10296 -4.91155 25392 ft 429 kts 130°
2026-05-05 16:19 54.08391 -4.87221 25822 ft 431 kts 130°
2026-05-05 16:19 54.04557 -4.79360 26657 ft 436 kts 131°
2026-05-05 16:20 54.00778 -4.71209 27498 ft 441 kts 128°
2026-05-05 16:20 53.97104 -4.62784 28305 ft 446 kts 127°
2026-05-05 16:21 53.93375 -4.54285 29102 ft 451 kts 128°
2026-05-05 16:22 53.87629 -4.41513 30205 ft 457 kts 128°
2026-05-05 16:22 53.83862 -4.32774 30815 ft 461 kts 126°
2026-05-05 16:23 53.80246 -4.23762 31467 ft 463 kts 124°
2026-05-05 16:23 53.78449 -4.19256 31908 ft 462 kts 125°
2026-05-05 16:23 53.74828 -4.10339 32779 ft 458 kts 126°
2026-05-05 16:24 53.73007 -4.05929 33226 ft 457 kts 126°
2026-05-05 16:24 53.71183 -4.01542 33667 ft 456 kts 126°
2026-05-05 16:24 53.67546 -3.92823 34462 ft 454 kts 126°
2026-05-05 16:25 53.65733 -3.88467 34805 ft 453 kts 126°
2026-05-05 16:25 53.62108 -3.79762 35446 ft 454 kts 126°
2026-05-05 16:25 53.60293 -3.75410 35756 ft 454 kts 126°
2026-05-05 16:26 53.56655 -3.66732 36049 ft 453 kts 126°
2026-05-05 16:26 53.53026 -3.58098 36054 ft 451 kts 126°
2026-05-05 16:27 53.49406 -3.49508 36046 ft 450 kts 126°
2026-05-05 16:27 53.46121 -3.40603 36050 ft 449 kts 114°
2026-05-05 16:28 53.43685 -3.30964 36052 ft 448 kts 113°
2026-05-05 16:28 53.41229 -3.21364 36053 ft 448 kts 113°
2026-05-05 16:29 53.38501 -3.12002 36032 ft 447 kts 123°
2026-05-05 16:29 53.34819 -3.03601 36027 ft 446 kts 126°
2026-05-05 16:30 53.31108 -2.95263 36024 ft 446 kts 126°
2026-05-05 16:30 53.27416 -2.87015 36021 ft 445 kts 126°
2026-05-05 16:31 53.23699 -2.78741 36024 ft 445 kts 126°
2026-05-05 16:31 53.19984 -2.70490 36024 ft 444 kts 126°
2026-05-05 16:32 53.16267 -2.62261 36042 ft 444 kts 126°
2026-05-05 16:32 53.12562 -2.54028 36033 ft 443 kts 125°
2026-05-05 16:33 53.09064 -2.45583 36023 ft 443 kts 123°
2026-05-05 16:33 53.05676 -2.37037 36020 ft 442 kts 123°
2026-05-05 16:34 53.01680 -2.29317 36017 ft 443 kts 140°
2026-05-05 16:34 52.96540 -2.23667 36013 ft 443 kts 147°
2026-05-05 16:35 52.91320 -2.18202 35857 ft 445 kts 147°
2026-05-05 16:35 52.88712 -2.15457 35376 ft 444 kts 147°
2026-05-05 16:35 52.86102 -2.12713 34864 ft 444 kts 147°
2026-05-05 16:36 52.83489 -2.09975 34239 ft 445 kts 146°
2026-05-05 16:36 52.80871 -2.07240 33558 ft 445 kts 147°
2026-05-05 16:36 52.78251 -2.04512 32848 ft 445 kts 147°
2026-05-05 16:36 52.75620 -2.01784 32066 ft 446 kts 147°
2026-05-05 16:37 52.72989 -1.99065 31302 ft 447 kts 147°
2026-05-05 16:37 52.70355 -1.96345 30545 ft 447 kts 148°
2026-05-05 16:37 52.67720 -1.93627 29757 ft 447 kts 148°
2026-05-05 16:37 52.65089 -1.90916 28889 ft 446 kts 148°
2026-05-05 16:38 52.62466 -1.88216 28156 ft 442 kts 149°
2026-05-05 16:38 52.59890 -1.85567 27801 ft 431 kts 149°
2026-05-05 16:38 52.57362 -1.82964 27246 ft 426 kts 149°
2026-05-05 16:38 52.54869 -1.80397 26712 ft 421 kts 149°
2026-05-05 16:39 52.52399 -1.77861 26183 ft 416 kts 149°
2026-05-05 16:39 52.49961 -1.75362 25669 ft 411 kts 150°
2026-05-05 16:39 52.47556 -1.72901 25193 ft 406 kts 150°
2026-05-05 16:39 52.45170 -1.70466 24694 ft 401 kts 150°
2026-05-05 16:40 52.42813 -1.68063 24229 ft 397 kts 150°
2026-05-05 16:40 52.40473 -1.65677 23767 ft 394 kts 151°
2026-05-05 16:40 52.38190 -1.63349 23302 ft 390 kts 151°
2026-05-05 16:40 52.35894 -1.61019 22850 ft 386 kts 151°
2026-05-05 16:41 52.33624 -1.58722 22413 ft 381 kts 151°
2026-05-05 16:41 52.31381 -1.56453 21979 ft 377 kts 151°
2026-05-05 16:41 52.29141 -1.54189 21527 ft 372 kts 150°
2026-05-05 16:41 52.26961 -1.51983 21086 ft 368 kts 150°
2026-05-05 16:42 52.24797 -1.49796 20646 ft 364 kts 150°
2026-05-05 16:42 52.22653 -1.47635 20199 ft 360 kts 150°
2026-05-05 16:42 52.20639 -1.45211 19782 ft 363 kts 141°
2026-05-05 16:42 52.18715 -1.42493 19427 ft 368 kts 141°
2026-05-05 16:43 52.16798 -1.39803 19057 ft 367 kts 141°
2026-05-05 16:43 52.14839 -1.37069 18679 ft 366 kts 141°
2026-05-05 16:43 52.12909 -1.34386 18308 ft 363 kts 141°
2026-05-05 16:43 52.10994 -1.31727 17905 ft 361 kts 141°
2026-05-05 16:44 52.09086 -1.29076 17536 ft 360 kts 141°
2026-05-05 16:44 52.07191 -1.26442 17170 ft 358 kts 141°
2026-05-05 16:44 52.05298 -1.23818 16801 ft 356 kts 141°
2026-05-05 16:44 52.03402 -1.21199 16434 ft 355 kts 141°
2026-05-05 16:45 52.01558 -1.18651 16060 ft 354 kts 141°
2026-05-05 16:45 51.99699 -1.16087 15706 ft 352 kts 141°
2026-05-05 16:45 51.97799 -1.13463 15346 ft 351 kts 141°
2026-05-05 16:45 51.95943 -1.10903 14988 ft 350 kts 141°
2026-05-05 16:46 51.94029 -1.08579 14630 ft 347 kts 153°
2026-05-05 16:46 51.91826 -1.07042 14169 ft 344 kts 160°
2026-05-05 16:46 51.89565 -1.05634 13614 ft 343 kts 161°
2026-05-05 16:46 51.87335 -1.04256 13024 ft 342 kts 161°
2026-05-05 16:47 51.85144 -1.02904 12454 ft 341 kts 161°
2026-05-05 16:47 51.82933 -1.01542 11955 ft 338 kts 161°
2026-05-05 16:47 51.80743 -1.00195 11455 ft 335 kts 161°
2026-05-05 16:47 51.78586 -0.98866 11156 ft 326 kts 161°
2026-05-05 16:48 51.76481 -0.97568 11026 ft 313 kts 161°
2026-05-05 16:48 51.74501 -0.96341 10886 ft 298 kts 161°
2026-05-05 16:48 51.72588 -0.95152 10571 ft 291 kts 161°
2026-05-05 16:48 51.70732 -0.93997 10191 ft 288 kts 161°
2026-05-05 16:49 51.68866 -0.92842 9737 ft 288 kts 161°
2026-05-05 16:49 51.66966 -0.91673 9143 ft 289 kts 161°
2026-05-05 16:49 51.65108 -0.90530 8569 ft 291 kts 161°
2026-05-05 16:49 51.63232 -0.89391 8252 ft 283 kts 161°
2026-05-05 16:50 51.61412 -0.88289 8017 ft 276 kts 161°
2026-05-05 16:50 51.59632 -0.87217 7780 ft 271 kts 161°
2026-05-05 16:50 51.57934 -0.86194 7495 ft 268 kts 161°
2026-05-05 16:50 51.56201 -0.85161 7191 ft 263 kts 161°
2026-05-05 16:51 51.54498 -0.84157 6866 ft 259 kts 161°
2026-05-05 16:51 51.52803 -0.83169 6470 ft 258 kts 161°
2026-05-05 16:51 51.51115 -0.82194 6060 ft 257 kts 161°
2026-05-05 16:51 51.49448 -0.81208 5632 ft 252 kts 156°
2026-05-05 16:52 51.48118 -0.79497 5259 ft 244 kts 123°
2026-05-05 16:52 51.47595 -0.76991 4859 ft 236 kts 92°
2026-05-05 16:52 51.47599 -0.74400 4414 ft 230 kts 88°
2026-05-05 16:52 51.47627 -0.71879 3987 ft 219 kts 88°
2026-05-05 16:53 51.47638 -0.70309 3816 ft 206 kts 88°
2026-05-05 16:53 51.47651 -0.68115 3475 ft 191 kts 88°
2026-05-05 16:53 51.47663 -0.66029 3010 ft 183 kts 87°
2026-05-05 16:53 51.47674 -0.64029 2613 ft 173 kts 86°
2026-05-05 16:54 51.47683 -0.62152 2307 ft 164 kts 86°
2026-05-05 16:54 51.47693 -0.60332 1933 ft 163 kts 86°
2026-05-05 16:54 51.47703 -0.58517 1549 ft 162 kts 86°
2026-05-05 16:54 51.47711 -0.56725 1187 ft 156 kts 86°
2026-05-05 16:55 51.47717 -0.55072 923 ft 140 kts 85°
2026-05-05 16:55 51.47718 -0.53544 688 ft 135 kts 86°
2026-05-05 16:55 51.47725 -0.52059 574 ft 133 kts 85°
2026-05-05 16:55 51.47735 -0.50605 394 ft 133 kts 85°
2026-05-05 16:56 51.47748 -0.49110 219 ft 136 kts 86°
2026-05-05 16:56 51.47750 -0.47612 90 ft 125 kts 85°
2026-05-05 16:56 51.47760 -0.46396 88 ft 80 kts 90°
2026-05-05 16:56 51.47759 -0.45742 86 ft 52 kts 90°
2026-05-05 16:57 51.47702 -0.45472 86 ft 19 kts 171°
2026-05-05 16:57 51.47600 -0.45511 87 ft 15 kts 246°
2026-05-05 16:57 51.47595 -0.45685 89 ft 17 kts 269°
2026-05-05 16:57 51.47594 -0.45883 90 ft 17 kts 270°
2026-05-05 16:58 51.47594 -0.46091 87 ft 20 kts 269°
2026-05-05 16:58 51.47593 -0.46329 87 ft 23 kts 269°
2026-05-05 16:58 51.47592 -0.46585 87 ft 22 kts 270°
2026-05-05 16:58 51.47590 -0.46805 87 ft 18 kts 265°
2026-05-05 16:59 51.47582 -0.47024 91 ft 21 kts 270°
2026-05-05 16:59 51.47581 -0.47269 89 ft 23 kts 269°
2026-05-05 16:59 51.47580 -0.47528 89 ft 24 kts 270°
2026-05-05 16:59 51.47580 -0.47785 87 ft 22 kts 269°
2026-05-05 17:00 51.47578 -0.48040 87 ft 24 kts 270°
2026-05-05 17:00 51.47578 -0.48288 90 ft 18 kts 269°
2026-05-05 17:00 51.47569 -0.48453 90 ft 12 kts 239°
2026-05-05 17:00 51.47499 -0.48479 87 ft 10 kts 179°
2026-05-05 17:01 51.47435 -0.48477 87 ft 7 kts 179°
2026-05-05 17:01 51.47406 -0.48477 87 ft 0 kts 180°
2026-05-05 17:02 51.47402 -0.48480 87 ft 3 kts 200°
2026-05-05 17:02 51.47398 -0.48526 87 ft 4 kts 277°
2026-05-05 17:02 51.47399 -0.48569 87 ft 3 kts 270°
2026-05-05 17:03 51.47399 -0.48589 87 ft 1 kts 269°
2026-05-05 17:03 51.47399 -0.48592 87 ft 0 kts 269°